{"data":{"norad_id":62482,"intl_designator":"2024-254W","name":"STARLINK-32699","alt_names":[],"object_type":"PAYLOAD","status":"ACTIVE","operator":null,"country":"US","launch_date":"2024-12-31","launch_site_code":"AFETR","launch_vehicle":null,"mission":null,"orbit_class":"UNKNOWN","rcs_meters":null,"size_class":null,"mass_kg":null,"dimensions":null,"purposes":["comms"],"wikipedia_slug":null,"has_3d_model":false,"image_url":null,"decayed_at":null,"tle_current":{"epoch":"2026-09-21T07:28:13.081728Z","epoch_age_seconds":104478,"freshness":"FRESH","line1":"1 62482U 24254W   26264.31126252  .00014769  00000+0  54493-3 0  9995","line2":"2 62482  42.9992 354.8116 0001144 228.3469 131.7285 15.27592292 97389","mean_motion":15.27592292,"eccentricity":0.0001144,"inclination_deg":42.9992,"raan_deg":354.8116,"arg_perigee_deg":228.3469,"mean_anomaly_deg":131.7285,"bstar":0.00054493,"rev_number":9738,"period_min":94.26599018215,"perigee_km":482.22737413771,"apogee_km":483.79720509517,"semimajor_km":6861.1492896164,"source":"CELESTRAK","updated_at":"2026-09-22T09:00:49.615803Z"}}}